Flag for Norway Weather past 2 weeks in Longyearbyen, Svalbard, Norway

Now
34 °F

Partly sunny.


Feels Like: 23 °F
Forecast: 34 / 38 °F
Wind: 16 mph from Southeast

Location: Svalbard Lufthavn

Current Time: May 29, 2015 at 12:57:41 AM

Latest Report: May 28, 2015 at 11:50 PM


Visibility: N/A

Pressure: 29.95 "Hg

Humidity: 70%

Dew point: 25 °F

Location of LongyearbyenLocation

Historic Weather in Longyearbyen — Graph

°F

Longyearbyen temperature yesterday

Maximum temperature yesterday: 39 °F (at 3:50 PM)
Minimum temperature yesterday: 28 °F (at 2:50 AM)
Average temperature yesterday: 33 °F

Past Weeks' High & Low Weather Summary

 TemperatureHumidityPressure
High39 °F (May 28, 3:50 PM)93% (May 18, 9:50 PM)30.18 "Hg (May 18, 9:50 PM)
Low18 °F (May 14, 12:50 AM)48% (May 28, 3:50 PM)29.42 "Hg (May 22, 5:50 AM)
Average32 °F73%29.88 "Hg
* Reported May 13 10:50 PM — May 28 10:50 PM, Longyearbyen, Weather by CustomWeather, © 2015

Note: Actual official high and low records may vary slightly from our data, if they occured in-between our weather recording intervals... More about our weather records

Advertising

Longyearbyen weather history for previous 24 hours

 ConditionsComfort  
Time TempWeatherWind HumidityBarometerVisibility
10:50 PM
Thu, May 28
34 °FPartly sunny.18 mph70%29.95 "HgN/A
9:50 PM36 °FBroken clouds.17 mph60%29.98 "HgN/A
8:50 PM36 °FPartly sunny.12 mph60%29.98 "HgN/A
7:50 PM36 °FScattered clouds.1 mph60%29.98 "HgN/A
6:50 PM37 °FScattered clouds.7 mph52%29.98 "HgN/A
5:50 PM37 °FScattered clouds.8 mph56%29.98 "HgN/A
4:50 PM37 °FScattered clouds.9 mph56%29.98 "HgN/A
3:50 PM39 °FScattered clouds.8 mph48%29.98 "HgN/A
2:50 PM37 °FScattered clouds.8 mph56%30.01 "HgN/A
1:50 PM36 °FScattered clouds.7 mph60%30.01 "HgN/A
12:50 PM36 °FPartly sunny.9 mph60%30.01 "HgN/A
11:50 AM34 °FPartly sunny.8 mph65%30.04 "HgN/A
10:50 AM32 °FPartly sunny.13 mph69%30.04 "HgN/A
9:50 AM32 °FPartly sunny.10 mph64%30.04 "HgN/A
8:50 AM30 °FPartly sunny.9 mph69%30.04 "HgN/A
7:50 AM30 °FScattered clouds.13 mph64%30.04 "HgN/A
6:50 AM30 °FPassing clouds.7 mph64%30.07 "HgN/A
5:50 AM30 °FPassing clouds.10 mph69%30.07 "HgN/A
4:50 AM30 °FPassing clouds.13 mph64%30.07 "HgN/A
3:50 AM30 °FPassing clouds.9 mph64%30.09 "HgN/A
2:50 AM28 °FPassing clouds.9 mph69%30.09 "HgN/A
1:50 AM30 °FPassing clouds.10 mph64%30.09 "HgN/A
12:50 AM30 °FPassing clouds.13 mph64%30.09 "HgN/A
Weather by CustomWeather, © 2015

See weather overviewHow to use our weather pages